Total_Precipitation_Accumulation
0.22 0.22 0.20 0.16 0.15 0.15 0.18 0.23 0.35 0.52 0.75 0.95 1.17 1.30 1.42 1.48 1.38 1.25 1.19 1.08 0.95 0.92 0.89 0.79 0.76 0.71 0.65 0.60 0.55 0.50 0.48 0.48 0.52 0.54 0.54 0.52 0.50 0.48 0.47 0.45 0.41 0.41 0.39 0.36
0.22 0.20 0.21 0.20 0.18 0.16 0.22 0.28 0.41 0.62 0.90 1.14 1.28 1.32 1.38 1.44 1.37 1.31 1.28 1.26 1.24 1.24 1.21 1.04 0.90 0.81 0.72 0.65 0.61 0.57 0.57 0.58 0.59 0.57 0.54 0.53 0.51 0.50 0.51 0.49 0.43 0.38 0.36 0.32
0.24 0.17 0.27 0.42 0.32 0.27 0.33 0.39 0.52 0.73 0.88 1.02 1.15 1.28 1.29 1.31 1.37 1.43 1.52 1.58 1.55 1.43 1.31 1.14 1.02 0.96 0.87 0.79 0.75 0.73 0.71 0.67 0.60 0.54 0.53 0.51 0.46 0.47 0.47 0.43 0.38 0.34 0.30 0.27
0.27 0.29 0.52 0.53 0.33 0.33 0.46 0.55 0.57 0.64 0.67 0.82 1.02 1.14 1.17 1.24 1.38 1.49 1.53 1.50 1.42 1.29 1.16 1.09 1.07 1.03 0.93 0.84 0.81 0.76 0.70 0.65 0.55 0.47 0.47 0.48 0.46 0.43 0.39 0.35 0.33 0.33 0.30 0.26
0.35 0.47 0.58 0.62 0.40 0.37 0.53 0.67 0.56 0.61 0.62 0.75 0.83 0.96 1.16 1.25 1.33 1.43 1.39 1.32 1.30 1.28 1.19 1.16 1.13 1.02 0.93 0.87 0.79 0.73 0.66 0.54 0.43 0.37 0.39 0.39 0.37 0.35 0.34 0.33 0.32 0.28 0.23 0.23
0.47 0.56 0.68 0.68 0.36 0.30 0.51 0.86 0.65 0.66 0.67 0.69 0.77 1.00 1.08 1.10 1.06 1.10 1.12 1.17 1.25 1.34 1.36 1.29 1.16 0.94 0.84 0.78 0.67 0.58 0.47 0.39 0.34 0.31 0.28 0.26 0.26 0.28 0.29 0.30 0.27 0.22 0.19 0.21
0.60 0.75 0.80 0.40 0.21 0.34 0.72 0.83 0.67 0.66 0.71 0.71 0.79 0.86 0.75 0.77 0.87 0.96 1.03 1.10 1.15 1.19 1.19 1.11 0.99 0.85 0.79 0.69 0.56 0.42 0.31 0.27 0.25 0.21 0.18 0.18 0.21 0.24 0.24 0.22 0.23 0.22 0.21 0.21
0.69 0.83 0.88 0.37 0.24 0.45 0.56 0.47 0.47 0.50 0.55 0.56 0.59 0.63 0.67 0.70 0.77 0.84 0.95 1.01 1.00 0.96 0.93 0.83 0.73 0.69 0.68 0.60 0.42 0.29 0.24 0.22 0.19 0.15 0.11 0.12 0.19 0.21 0.20 0.22 0.22 0.20 0.21 0.20
0.81 0.90 0.65 0.33 0.30 0.34 0.40 0.39 0.37 0.43 0.45 0.48 0.52 0.58 0.68 0.78 0.83 0.84 0.81 0.81 0.77 0.68 0.63 0.58 0.52 0.51 0.52 0.44 0.32 0.26 0.24 0.24 0.21 0.17 0.15 0.13 0.16 0.18 0.18 0.19 0.17 0.15 0.16 0.17
0.72 0.77 0.53 0.35 0.30 0.29 0.29 0.30 0.32 0.40 0.43 0.43 0.43 0.44 0.52 0.62 0.69 0.70 0.66 0.60 0.54 0.46 0.43 0.40 0.35 0.33 0.32 0.28 0.25 0.27 0.29 0.26 0.25 0.24 0.20 0.15 0.14 0.11 0.12 0.13 0.14 0.14 0.16 0.17
0.77 0.74 0.56 0.44 0.34 0.29 0.30 0.30 0.35 0.39 0.38 0.35 0.31 0.30 0.32 0.39 0.44 0.44 0.40 0.37 0.33 0.31 0.28 0.25 0.22 0.20 0.20 0.20 0.21 0.28 0.26 0.21 0.19 0.17 0.17 0.16 0.13 0.06 0.05 0.07 0.05 0.08 0.11 0.12
0.86 0.69 0.54 0.51 0.42 0.35 0.33 0.31 0.28 0.24 0.25 0.28 0.28 0.27 0.28 0.30 0.31 0.30 0.27 0.24 0.23 0.22 0.20 0.18 0.17 0.15 0.13 0.11 0.13 0.22 0.22 0.18 0.13 0.10 0.10 0.11 0.16 0.12 0.03 0.02 0.02 0.02 0.04 0.05
0.53 0.43 0.40 0.38 0.38 0.40 0.31 0.24 0.21 0.18 0.15 0.19 0.22 0.22 0.22 0.23 0.22 0.19 0.18 0.18 0.18 0.18 0.15 0.13 0.12 0.13 0.10 0.08 0.09 0.14 0.17 0.14 0.08 0.07 0.08 0.09 0.14 0.20 0.18 0.10 0.05 0.05 0.03 0.04
0.39 0.41 0.44 0.34 0.28 0.26 0.19 0.16 0.15 0.13 0.11 0.12 0.15 0.16 0.15 0.15 0.14 0.13 0.14 0.13 0.11 0.09 0.07 0.08 0.08 0.08 0.07 0.05 0.07 0.08 0.09 0.06 0.05 0.07 0.07 0.08 0.11 0.13 0.16 0.20 0.23 0.20 0.10 0.05
0.34 0.32 0.30 0.21 0.15 0.15 0.11 0.09 0.09 0.10 0.10 0.12 0.11 0.10 0.10 0.11 0.10 0.09 0.08 0.06 0.07 0.07 0.05 0.06 0.07 0.07 0.05 0.03 0.04 0.06 0.06 0.09 0.08 0.06 0.05 0.06 0.07 0.09 0.10 0.13 0.17 0.20 0.17 0.11
0.24 0.18 0.14 0.12 0.13 0.13 0.11 0.08 0.07 0.08 0.08 0.08 0.08 0.09 0.07 0.06 0.06 0.06 0.06 0.05 0.07 0.07 0.05 0.06 0.07 0.05 0.03 0.03 0.04 0.06 0.04 0.02 0.03 0.04 0.03 0.04 0.04 0.06 0.07 0.10 0.14 0.18 0.19 0.16
0.17 0.15 0.13 0.11 0.10 0.11 0.10 0.08 0.06 0.06 0.06 0.06 0.06 0.04 0.03 0.03 0.04 0.05 0.04 0.03 0.04 0.04 0.03 0.04 0.04 0.02 0.02 0.02 0.02 0.03 0.03 0.01 0.01 0.02 0.03 0.03 0.03 0.04 0.06 0.08 0.13 0.18 0.17 0.14
0.10 0.09 0.09 0.07 0.05 0.05 0.05 0.04 0.04 0.03 0.03 0.03 0.02 0.02 0.02 0.03 0.04 0.03 0.02 0.02 0.01 0.01 0.01 0.01 0.01 0.01 0.01 0.01 0.01 0.01 0.01 0.01 0.01 0.02 0.02 0.01 0.01 0.03 0.05 0.07 0.09 0.13 0.15 0.15
0.06 0.04 0.05 0.04 0.03 0.02 0.03 0.03 0.02 0.01 0.01 0.01 0.02 0.02 0.02 0.02 0.01 0.01 0.01 0.01 0.01 0.02 0.02 0.01 0.01 0.01 0.01 0.01 0.00 0.01 0.00 0.01 0.01 0.01 0.01 0.00 0.01 0.02 0.04 0.05 0.07 0.09 0.11 0.14
0.04 0.03 0.03 0.03 0.02 0.02 0.02 0.01 0.01 0.01 0.01 0.02 0.02 0.01 0.01 0.01 0.00 0.00 0.01 0.01 0.01 0.01 0.01 0.00 0.00 0.00 0.00 0.00 0.00 0.00 0.00 0.00 0.00 0.00 0.00 0.00 0.01 0.02 0.02 0.03 0.05 0.07 0.10 0.13
0.03 0.02 0.02 0.02 0.02 0.01 0.01 0.01 0.01 0.01 0.01 0.02 0.01 0.00 0.00 0.00 0.00 0.00 0.00 0.02 0.01 0.00 0.00 0.00 0.00 0.00 0.00 0.00 0.00 0.00 0.00 0.01 0.00 0.00 0.00 0.00 0.01 0.01 0.01 0.02 0.03 0.04 0.06 0.08
0.04 0.03 0.02 0.01 0.01 0.01 0.02 0.02 0.02 0.02 0.02 0.02 0.01 0.00 0.00 0.00 0.00 0.00 0.00 0.01 0.01 0.00 0.00 0.00 0.00 0.00 0.00 0.00 0.00 0.00 0.00 0.00 0.00 0.00 0.00 0.00 0.00 0.01 0.01 0.01 0.01 0.02 0.03 0.04
0.07 0.05 0.03 0.02 0.01 0.02 0.02 0.02 0.02 0.02 0.02 0.01 0.00 0.00 0.00 0.00 0.00 0.00 0.00 0.00 0.00 0.00 0.00 0.00 0.00 0.00 0.00 0.00 0.00 0.00 0.00 0.00 0.00 0.00 0.00 0.00 0.00 0.00 0.00 0.00 0.01 0.01 0.01 0.02
0.10 0.07 0.04 0.03 0.02 0.03 0.03 0.03 0.03 0.03 0.02 0.01 0.00 0.00 0.00 0.00 0.00 0.00 0.00 0.00 0.00 0.00 0.00 0.00 0.00 0.00 0.00 0.00 0.00 0.00 0.00 0.00 0.00 0.00 0.00 0.00 0.00 0.00 0.00 0.00 0.00 0.00 0.01 0.01
0.12 0.09 0.06 0.06 0.06 0.05 0.04 0.04 0.03 0.02 0.01 0.01 0.00 0.00 0.00 0.00 0.00 0.00 0.00 0.00 0.00 0.00 0.00 0.00 0.00 0.00 0.00 0.00 0.00 0.00 0.00 0.00 0.00 0.00 0.00 0.00 0.00 0.00 0.00 0.00 0.00 0.00 0.00 0.00
0.17 0.15 0.12 0.10 0.09 0.06 0.04 0.03 0.03 0.01 0.00 0.00 0.00 0.00 0.00 0.00 0.00 0.00 0.00 0.00 0.00 0.00 0.00 0.00 0.00 0.00 0.00 0.00 0.00 0.00 0.00 0.00 0.00 0.00 0.00 0.00 0.00 0.00 0.00 0.00 0.00 0.00 0.00 0.00
0.23 0.17 0.14 0.09 0.08 0.04 0.03 0.03 0.02 0.01 0.00 0.00 0.00 0.00 0.00 0.00 0.00 0.00 0.00 0.00 0.00 0.00 0.00 0.00 0.00 0.00 0.00 0.00 0.00 0.00 0.00 0.00 0.00 0.00 0.00 0.00 0.00 0.00 0.00 0.00 0.00 0.00 0.00 0.00